Weather History for Windom, MN

Change the Weather History Date:

Thursday, September 5, 2013

  Actual Average Record
Temperature  
Mean Temperature 74 °F -  
Max Temperature 87 °F 79 °F 93 °F (1960)
Min Temperature 62 °F 53 °F 35 °F (2002)
Cooling Degree Days 10    
Growing Degree Days 24 (Base 50)    
Moisture  
Dew Point 63 °F    
Average Humidity 72    
Maximum Humidity 100    
Minimum Humidity 43    
Precipitation  
Precipitation 0.03 in - - ()
Sea Level Pressure  
Sea Level Pressure 30.16 in    
Wind  
Wind Speed 3 mph (SE)    
Max Wind Speed 14 mph    
Max Gust Speed 16 mph    
Visibility 8 miles    
Events Fog , Rain    
Averages and records for this station are not official NWS values.
T = Trace of Precipitation, MM = Missing Value Source: NWS Daily Summary

Daily Weather History Graph

Daily Weather History Graph

Search for Another Location

Airport:

Trip Planner

Search our weather history database for the weather conditions in past years. The results will help you decide how hot, cold, wet, or windy it might be!

Date:

Astronomy

Sep. 05, 2013 Rise Set
Actual Time 6:48 AM CDT 7:48 PM CDT
Civil Twilight 6:19 AM CDT 8:17 PM CDT
Nautical Twilight 5:44 AM CDT 8:52 PM CDT
Astronomical Twilight 5:07 AM CDT 9:29 PM CDT
Moon 7:03 AM CDT (9/5) 7:37 PM CDT (9/5)
Length of Visible Light 13h 58m
Length of Day
12h 59m
New Moon, 0% of the Moon is Illuminated
Sep 5
New Moon
Sep 12
First Quarter
Sep 19
Full
Sep 26
Last Quarter
Oct 4
New

Hourly Weather History & Observations

Time (CDT) Temp. Heat Index Dew Point Humidity Pressure Visibility Wind Dir Wind Speed Gust Speed Precip Events Conditions
12:12 AM 66.2 °F - 64.4 °F 94% 30.15 in 10.0 mi Calm Calm - N/A   Clear
12:32 AM 68.0 °F - 66.2 °F 94% 30.15 in 5.0 mi Calm Calm - N/A   Clear
12:53 AM 66.2 °F - 64.4 °F 94% 30.15 in 7.0 mi Calm Calm - N/A   Clear
1:12 AM 66.2 °F - 64.4 °F 94% 30.15 in 7.0 mi Calm Calm - N/A   Clear
1:32 AM 64.4 °F - 62.6 °F 94% 30.15 in 7.0 mi Calm Calm - N/A   Clear
1:53 AM 64.4 °F - 62.6 °F 94% 30.16 in 10.0 mi Calm Calm - N/A   Clear
2:12 AM 64.4 °F - 60.8 °F 88% 30.16 in 10.0 mi Calm Calm - N/A   Clear
2:32 AM 62.6 °F - 60.8 °F 94% 30.16 in 4.0 mi NNE 3.5 mph - N/A   Mostly Cloudy
2:53 AM 62.6 °F - 60.8 °F 94% 30.16 in 0.2 mi Calm Calm - N/A Fog Fog
3:12 AM 62.6 °F - 62.6 °F 100% 30.16 in 0.2 mi Calm Calm - N/A Fog Fog
3:32 AM 62.6 °F - 62.6 °F 100% 30.16 in 0.2 mi NE 5.8 mph - N/A Fog Fog
3:53 AM 66.2 °F - 64.4 °F 94% 30.17 in 5.0 mi ENE 3.5 mph - N/A   Scattered Clouds
4:12 AM 64.4 °F - 64.4 °F 100% 30.16 in 3.0 mi ENE 3.5 mph - N/A   Clear
4:32 AM 66.2 °F - 64.4 °F 94% 30.17 in 1.5 mi Calm Calm - N/A   Mist
4:53 AM 64.4 °F - 62.6 °F 94% 30.17 in 2.5 mi East 3.5 mph - N/A   Clear
5:12 AM 64.4 °F - 62.6 °F 94% 30.17 in 4.0 mi Calm Calm - N/A   Clear
5:32 AM 64.4 °F - 62.6 °F 94% 30.17 in 1.0 mi ENE 3.5 mph - N/A   Mist
5:52 AM 62.6 °F - 62.6 °F 100% 30.17 in 1.0 mi East 4.6 mph - N/A   Mist
6:12 AM 64.4 °F - 62.6 °F 94% 30.18 in 5.0 mi ENE 3.5 mph - N/A   Clear
6:33 AM 62.6 °F - 62.6 °F 100% 30.19 in 7.0 mi East 3.5 mph - N/A   Clear
6:52 AM 62.6 °F - 62.6 °F 100% 30.20 in 4.0 mi Calm Calm - N/A   Clear
7:12 AM 62.6 °F - 60.8 °F 94% 30.19 in 3.0 mi East 4.6 mph - N/A   Clear
7:33 AM 62.6 °F - 62.6 °F 100% 30.20 in 4.0 mi Calm Calm - N/A   Clear
7:52 AM 64.4 °F - 62.6 °F 94% 30.19 in 5.0 mi East 4.6 mph - N/A   Clear
8:12 AM 66.2 °F - 64.4 °F 94% 30.19 in 7.0 mi East 3.5 mph - N/A   Clear
8:33 AM 66.2 °F - 64.4 °F 94% 30.19 in 7.0 mi East 3.5 mph - N/A   Clear
8:52 AM 68.0 °F - 64.4 °F 88% 30.20 in 7.0 mi East 5.8 mph - N/A   Clear
9:12 AM 69.8 °F - 64.4 °F 83% 30.19 in 10.0 mi ESE 3.5 mph - N/A   Clear
9:33 AM 73.4 °F - 66.2 °F 78% 30.19 in 10.0 mi ESE 3.5 mph - N/A   Clear
9:52 AM 75.2 °F - 66.2 °F 73% 30.20 in 10.0 mi East 3.5 mph - N/A   Clear
10:12 AM 77.0 °F - 62.6 °F 61% 30.21 in 10.0 mi Calm Calm - N/A   Clear
10:32 AM 78.8 °F - 62.6 °F 57% 30.20 in 10.0 mi Calm Calm - N/A   Clear
10:52 AM 80.6 °F 81.8 °F 62.6 °F 54% 30.20 in 10.0 mi East 6.9 mph - N/A   Clear
11:12 AM 80.6 °F 82.3 °F 64.4 °F 58% 30.20 in 7.0 mi East 5.8 mph - N/A   Clear
11:32 AM 80.6 °F 81.8 °F 62.6 °F 54% 30.21 in - Calm Calm - 0.03 in   Clear
11:52 AM 80.6 °F 81.8 °F 62.6 °F 54% 30.21 in 10.0 mi Calm Calm - N/A Rain Rain
12:12 PM 82.4 °F 83.4 °F 62.6 °F 51% 30.20 in 10.0 mi ESE 3.5 mph - N/A   Clear
12:33 PM 82.4 °F 83.4 °F 62.6 °F 51% 30.19 in 10.0 mi ESE 4.6 mph - N/A   Clear
12:52 PM 84.2 °F 85.6 °F 64.4 °F 51% 30.18 in 10.0 mi ESE 5.8 mph - N/A   Clear
1:12 PM 84.2 °F 85.6 °F 64.4 °F 51% 30.18 in 10.0 mi ESE 6.9 mph - N/A   Clear
1:33 PM 84.2 °F 85.6 °F 64.4 °F 51% 30.18 in 10.0 mi ESE 5.8 mph - N/A   Clear
1:52 PM 84.2 °F 85.6 °F 64.4 °F 51% 30.17 in 10.0 mi ESE 8.1 mph - N/A   Clear
2:12 PM 87.8 °F 89.4 °F 64.4 °F 46% 30.17 in 10.0 mi South 6.9 mph - N/A   Clear
2:33 PM 87.8 °F 89.4 °F 64.4 °F 46% 30.16 in 10.0 mi SSE 8.1 mph - N/A   Clear
2:52 PM 87.8 °F 88.5 °F 62.6 °F 43% 30.16 in 10.0 mi South 6.9 mph - N/A   Clear
3:12 PM 87.8 °F 88.5 °F 62.6 °F 43% 30.15 in 10.0 mi SSE 9.2 mph - N/A   Clear
3:33 PM 87.8 °F 88.5 °F 62.6 °F 43% 30.15 in 10.0 mi SSE 10.4 mph - N/A   Clear
3:52 PM 87.8 °F 89.4 °F 64.4 °F 46% 30.14 in 10.0 mi SE 11.5 mph - N/A   Clear
4:12 PM 87.8 °F 88.5 °F 62.6 °F 43% 30.14 in 10.0 mi SSE 8.1 mph 16.1 mph N/A   Clear
4:33 PM 87.8 °F 88.5 °F 62.6 °F 43% 30.14 in 10.0 mi SSE 9.2 mph - N/A   Clear
4:52 PM 84.2 °F 85.6 °F 64.4 °F 51% 30.14 in 10.0 mi South 9.2 mph - N/A   Clear
5:12 PM 86.0 °F 87.3 °F 64.4 °F 48% 30.13 in 10.0 mi SSE 8.1 mph - N/A   Scattered Clouds
5:32 PM 86.0 °F 87.3 °F 64.4 °F 48% 30.13 in 10.0 mi SSE 8.1 mph - N/A   Scattered Clouds
5:52 PM 84.2 °F 85.0 °F 62.6 °F 48% 30.13 in 10.0 mi South 13.8 mph - N/A   Clear
6:13 PM 84.2 °F 85.6 °F 64.4 °F 51% 30.13 in 10.0 mi South 8.1 mph - N/A   Clear
6:32 PM 82.4 °F 83.9 °F 64.4 °F 54% 30.13 in 10.0 mi South 8.1 mph - N/A   Clear
6:52 PM 80.6 °F 82.3 °F 64.4 °F 58% 30.13 in 10.0 mi SSW 6.9 mph - N/A   Clear
7:13 PM 78.8 °F - 64.4 °F 61% 30.13 in 10.0 mi SSW 6.9 mph - N/A   Clear
7:32 PM 78.8 °F - 64.4 °F 61% 30.13 in 10.0 mi SSW 8.1 mph - N/A   Clear
7:52 PM 78.8 °F - 64.4 °F 61% 30.12 in 10.0 mi South 5.8 mph - N/A   Clear
8:13 PM 77.0 °F - 64.4 °F 65% 30.12 in 10.0 mi South 5.8 mph - N/A   Clear
8:32 PM 75.2 °F - 64.4 °F 69% 30.12 in 10.0 mi SE 3.5 mph - N/A   Scattered Clouds
8:52 PM 73.4 °F - 64.4 °F 73% 30.13 in 10.0 mi SE 4.6 mph - N/A   Scattered Clouds
9:13 PM 73.4 °F - 62.6 °F 69% 30.12 in 10.0 mi SSE 5.8 mph - N/A   Clear
9:32 PM 73.4 °F - 62.6 °F 69% 30.12 in 10.0 mi SSE 5.8 mph - N/A   Clear
9:52 PM 71.6 °F - 62.6 °F 73% 30.12 in 10.0 mi SSE 3.5 mph - N/A   Clear
10:12 PM 71.6 °F - 60.8 °F 69% 30.12 in 10.0 mi SSE 4.6 mph - N/A   Clear
10:32 PM 69.8 °F - 60.8 °F 73% 30.12 in 10.0 mi SE 3.5 mph - N/A   Clear
10:53 PM 69.8 °F - 62.6 °F 78% 30.11 in 10.0 mi SSE 5.8 mph - N/A   Clear
11:12 PM 69.8 °F - 60.8 °F 73% 30.11 in 10.0 mi SE 5.8 mph - N/A   Clear
11:32 PM 69.8 °F - 60.8 °F 73% 30.11 in 10.0 mi SSE 5.8 mph - N/A   Clear
11:53 PM 69.8 °F - 60.8 °F 73% 30.11 in 10.0 mi South 4.6 mph - N/A   Clear